sat.trackr.live / text

‹ back to catalog

STARLINK-35106

NORAD 65739 · 2025-216F

PAYLOAD ACTIVE UNKNOWN

§ Identity

Operator
Country
US
Launch date
2025-09-25
Launch site
AFETR
Launch vehicle
Mass (kg)
RCS (m²)

Purposes: comms

External: N2YO · Heavens-Above · Gunter

§ Orbital elements

Epoch: 2026-05-24T20:30:58.881024Z

Period
94.10 min
Inclination
53.1614°
Eccentricity
0.0000812
Mean motion
15.30210402 rev/d
Perigee alt
474.6 km
Apogee alt
475.7 km
Semi-major
6,853.3 km
B*
6.0532e-4
RAAN
339.1942°
Arg perigee
90.7853°
Mean anomaly
269.3241°
Rev number
3,817

§ Raw data

STARLINK-351061 65739U 25216F   26144.85484816  .00017617  00000+0  60532-3 0  99972 65739  53.1614 339.1942 0000812  90.7853 269.3241 15.30210402 38170

JSON: /api/v1/satellites/65739 · /tle

For live sub-satellite position, see the globe view (requires WebGL).

§ Visibility from observer

Set your observer location to see the next 7 days of passes ≥ 10°. The values pass through the URL so the page stays shareable.

No JS? Fill the form by hand. The geolocation button needs JavaScript.